<?xml version="1.0" encoding="UTF-8" standalone="no" ?>
<gpx xmlns="http://www.topografix.com/GPX/1/1" xmlns:xsi="http://www.w3.org/2001/XMLSchema-instance" xsi:schemaLocation="http://www.topografix.com/GPX/1/1 http://www.topografix.com/GPX/1/1/gpx.xsd" version="1.1" creator="VisuGPX - https://www.visugpx.com">
  <metadata>
    <name>Sainté - Lyon 2012 - Soucieu - Lyon - Parcours prévisionnel</name>
    <desc><![CDATA[Parcours issu du site officiel de la Sainté-Lyon 2012 le 31/10/2012.
Un parcours mythique de Saint-Etienne à Lyon via les crêtes des Monts du Lyonnais]]></desc>
  </metadata>
  <trk>
    <name><![CDATA[Soucieu-Lyon]]></name>
    <trkseg>
      <trkpt lat="45.67835" lon="4.69746">
        <ele>361</ele>
        <time>2010-01-01T04:47:29Z</time>
      </trkpt>
      <trkpt lat="45.67836" lon="4.69833">
        <ele>358</ele>
        <time>2010-01-01T04:47:54Z</time>
      </trkpt>
      <trkpt lat="45.6784" lon="4.69912">
        <ele>356</ele>
        <time>2010-01-01T04:48:16Z</time>
      </trkpt>
      <trkpt lat="45.67859" lon="4.69982">
        <ele>353</ele>
        <time>2010-01-01T04:48:37Z</time>
      </trkpt>
      <trkpt lat="45.67864" lon="4.70004">
        <ele>351</ele>
        <time>2010-01-01T04:48:43Z</time>
      </trkpt>
      <trkpt lat="45.67871" lon="4.70016">
        <ele>351</ele>
        <time>2010-01-01T04:48:48Z</time>
      </trkpt>
      <trkpt lat="45.67905" lon="4.70019">
        <ele>352</ele>
        <time>2010-01-01T04:49:01Z</time>
      </trkpt>
      <trkpt lat="45.67953" lon="4.70025">
        <ele>353</ele>
        <time>2010-01-01T04:49:21Z</time>
      </trkpt>
      <trkpt lat="45.67971" lon="4.70014">
        <ele>353</ele>
        <time>2010-01-01T04:49:28Z</time>
      </trkpt>
      <trkpt lat="45.67981" lon="4.69997">
        <ele>356</ele>
        <time>2010-01-01T04:49:35Z</time>
      </trkpt>
      <trkpt lat="45.68005" lon="4.6987">
        <ele>361</ele>
        <time>2010-01-01T04:50:11Z</time>
      </trkpt>
      <trkpt lat="45.68048" lon="4.69777">
        <ele>363</ele>
        <time>2010-01-01T04:50:43Z</time>
      </trkpt>
      <trkpt lat="45.68079" lon="4.6972">
        <ele>364</ele>
        <time>2010-01-01T04:51:03Z</time>
      </trkpt>
      <trkpt lat="45.68144" lon="4.69762">
        <ele>359</ele>
        <time>2010-01-01T04:51:31Z</time>
      </trkpt>
      <trkpt lat="45.68224" lon="4.69823">
        <ele>355</ele>
        <time>2010-01-01T04:52:08Z</time>
      </trkpt>
      <trkpt lat="45.68249" lon="4.6985">
        <ele>354</ele>
        <time>2010-01-01T04:52:20Z</time>
      </trkpt>
      <trkpt lat="45.68299" lon="4.69905">
        <ele>352</ele>
        <time>2010-01-01T04:52:45Z</time>
      </trkpt>
      <trkpt lat="45.68342" lon="4.69966">
        <ele>352</ele>
        <time>2010-01-01T04:53:09Z</time>
      </trkpt>
      <trkpt lat="45.68355" lon="4.69986">
        <ele>352</ele>
        <time>2010-01-01T04:53:17Z</time>
      </trkpt>
      <trkpt lat="45.68331" lon="4.70059">
        <ele>352</ele>
        <time>2010-01-01T04:53:40Z</time>
      </trkpt>
      <trkpt lat="45.68284" lon="4.70174">
        <ele>349</ele>
        <time>2010-01-01T04:54:17Z</time>
      </trkpt>
      <trkpt lat="45.68282" lon="4.70194">
        <ele>349</ele>
        <time>2010-01-01T04:54:23Z</time>
      </trkpt>
      <trkpt lat="45.68283" lon="4.70217">
        <ele>349</ele>
        <time>2010-01-01T04:54:29Z</time>
      </trkpt>
      <trkpt lat="45.68279" lon="4.70234">
        <ele>349</ele>
        <time>2010-01-01T04:54:34Z</time>
      </trkpt>
      <trkpt lat="45.68276" lon="4.70247">
        <ele>349</ele>
        <time>2010-01-01T04:54:38Z</time>
      </trkpt>
      <trkpt lat="45.68271" lon="4.7026">
        <ele>347</ele>
        <time>2010-01-01T04:54:42Z</time>
      </trkpt>
      <trkpt lat="45.68263" lon="4.70281">
        <ele>347</ele>
        <time>2010-01-01T04:54:49Z</time>
      </trkpt>
      <trkpt lat="45.68258" lon="4.70298">
        <ele>346</ele>
        <time>2010-01-01T04:54:54Z</time>
      </trkpt>
      <trkpt lat="45.68251" lon="4.70308">
        <ele>346</ele>
        <time>2010-01-01T04:54:58Z</time>
      </trkpt>
      <trkpt lat="45.68242" lon="4.70313">
        <ele>344</ele>
        <time>2010-01-01T04:55:02Z</time>
      </trkpt>
      <trkpt lat="45.68234" lon="4.70341">
        <ele>342</ele>
        <time>2010-01-01T04:55:10Z</time>
      </trkpt>
      <trkpt lat="45.68251" lon="4.70369">
        <ele>344</ele>
        <time>2010-01-01T04:55:21Z</time>
      </trkpt>
      <trkpt lat="45.68267" lon="4.70385">
        <ele>344</ele>
        <time>2010-01-01T04:55:29Z</time>
      </trkpt>
      <trkpt lat="45.6829" lon="4.70408">
        <ele>344</ele>
        <time>2010-01-01T04:55:40Z</time>
      </trkpt>
      <trkpt lat="45.68323" lon="4.70455">
        <ele>344</ele>
        <time>2010-01-01T04:55:58Z</time>
      </trkpt>
      <trkpt lat="45.68351" lon="4.7051">
        <ele>345</ele>
        <time>2010-01-01T04:56:18Z</time>
      </trkpt>
      <trkpt lat="45.68407" lon="4.70573">
        <ele>346</ele>
        <time>2010-01-01T04:56:46Z</time>
      </trkpt>
      <trkpt lat="45.68441" lon="4.70632">
        <ele>341</ele>
        <time>2010-01-01T04:57:07Z</time>
      </trkpt>
      <trkpt lat="45.68463" lon="4.70651">
        <ele>340</ele>
        <time>2010-01-01T04:57:18Z</time>
      </trkpt>
      <trkpt lat="45.68469" lon="4.70671">
        <ele>337</ele>
        <time>2010-01-01T04:57:24Z</time>
      </trkpt>
      <trkpt lat="45.6857" lon="4.70808">
        <ele>330</ele>
        <time>2010-01-01T04:58:20Z</time>
      </trkpt>
      <trkpt lat="45.68609" lon="4.70849">
        <ele>327</ele>
        <time>2010-01-01T04:58:39Z</time>
      </trkpt>
      <trkpt lat="45.68666" lon="4.70908">
        <ele>325</ele>
        <time>2010-01-01T04:59:07Z</time>
      </trkpt>
      <trkpt lat="45.68701" lon="4.70933">
        <ele>323</ele>
        <time>2010-01-01T04:59:23Z</time>
      </trkpt>
      <trkpt lat="45.68712" lon="4.70959">
        <ele>322</ele>
        <time>2010-01-01T04:59:31Z</time>
      </trkpt>
      <trkpt lat="45.68708" lon="4.70989">
        <ele>322</ele>
        <time>2010-01-01T04:59:40Z</time>
      </trkpt>
      <trkpt lat="45.68712" lon="4.71017">
        <ele>320</ele>
        <time>2010-01-01T04:59:48Z</time>
      </trkpt>
      <trkpt lat="45.68724" lon="4.71071">
        <ele>319</ele>
        <time>2010-01-01T05:00:03Z</time>
      </trkpt>
      <trkpt lat="45.68754" lon="4.71178">
        <ele>314</ele>
        <time>2010-01-01T05:00:36Z</time>
      </trkpt>
      <trkpt lat="45.68768" lon="4.71233">
        <ele>312</ele>
        <time>2010-01-01T05:00:52Z</time>
      </trkpt>
      <trkpt lat="45.68788" lon="4.71288">
        <ele>307</ele>
        <time>2010-01-01T05:01:09Z</time>
      </trkpt>
      <trkpt lat="45.6881" lon="4.7132">
        <ele>306</ele>
        <time>2010-01-01T05:01:22Z</time>
      </trkpt>
      <trkpt lat="45.68849" lon="4.71354">
        <ele>303</ele>
        <time>2010-01-01T05:01:40Z</time>
      </trkpt>
      <trkpt lat="45.68877" lon="4.71373">
        <ele>303</ele>
        <time>2010-01-01T05:01:53Z</time>
      </trkpt>
      <trkpt lat="45.68919" lon="4.71407">
        <ele>303</ele>
        <time>2010-01-01T05:02:12Z</time>
      </trkpt>
      <trkpt lat="45.6903" lon="4.71491">
        <ele>301</ele>
        <time>2010-01-01T05:03:02Z</time>
      </trkpt>
      <trkpt lat="45.69099" lon="4.71533">
        <ele>299</ele>
        <time>2010-01-01T05:03:32Z</time>
      </trkpt>
      <trkpt lat="45.69159" lon="4.71551">
        <ele>298</ele>
        <time>2010-01-01T05:03:57Z</time>
      </trkpt>
      <trkpt lat="45.69185" lon="4.71561">
        <ele>298</ele>
        <time>2010-01-01T05:04:07Z</time>
      </trkpt>
      <trkpt lat="45.69204" lon="4.71575">
        <ele>298</ele>
        <time>2010-01-01T05:04:16Z</time>
      </trkpt>
      <trkpt lat="45.69219" lon="4.71594">
        <ele>295</ele>
        <time>2010-01-01T05:04:24Z</time>
      </trkpt>
      <trkpt lat="45.69237" lon="4.71633">
        <ele>295</ele>
        <time>2010-01-01T05:04:37Z</time>
      </trkpt>
      <trkpt lat="45.69263" lon="4.7168">
        <ele>294</ele>
        <time>2010-01-01T05:04:54Z</time>
      </trkpt>
      <trkpt lat="45.69272" lon="4.71695">
        <ele>294</ele>
        <time>2010-01-01T05:05:00Z</time>
      </trkpt>
      <trkpt lat="45.69349" lon="4.71809">
        <ele>289</ele>
        <time>2010-01-01T05:05:44Z</time>
      </trkpt>
      <trkpt lat="45.69427" lon="4.71928">
        <ele>283</ele>
        <time>2010-01-01T05:06:29Z</time>
      </trkpt>
      <trkpt lat="45.69438" lon="4.71959">
        <ele>280</ele>
        <time>2010-01-01T05:06:39Z</time>
      </trkpt>
      <trkpt lat="45.69434" lon="4.72006">
        <ele>279</ele>
        <time>2010-01-01T05:06:52Z</time>
      </trkpt>
      <trkpt lat="45.69434" lon="4.72061">
        <ele>274</ele>
        <time>2010-01-01T05:07:07Z</time>
      </trkpt>
      <trkpt lat="45.69435" lon="4.72116">
        <ele>267</ele>
        <time>2010-01-01T05:07:23Z</time>
      </trkpt>
      <trkpt lat="45.69435" lon="4.72167">
        <ele>263</ele>
        <time>2010-01-01T05:07:37Z</time>
      </trkpt>
      <trkpt lat="45.69444" lon="4.72243">
        <ele>258</ele>
        <time>2010-01-01T05:07:59Z</time>
      </trkpt>
      <trkpt lat="45.69444" lon="4.72293">
        <ele>251</ele>
        <time>2010-01-01T05:08:13Z</time>
      </trkpt>
      <trkpt lat="45.6944" lon="4.72322">
        <ele>250</ele>
        <time>2010-01-01T05:08:21Z</time>
      </trkpt>
      <trkpt lat="45.6943" lon="4.7234">
        <ele>246</ele>
        <time>2010-01-01T05:08:27Z</time>
      </trkpt>
      <trkpt lat="45.69447" lon="4.72377">
        <ele>242</ele>
        <time>2010-01-01T05:08:40Z</time>
      </trkpt>
      <trkpt lat="45.69477" lon="4.72416">
        <ele>240</ele>
        <time>2010-01-01T05:08:56Z</time>
      </trkpt>
      <trkpt lat="45.69474" lon="4.7242">
        <ele>237</ele>
        <time>2010-01-01T05:08:58Z</time>
      </trkpt>
      <trkpt lat="45.69459" lon="4.7242">
        <ele>237</ele>
        <time>2010-01-01T05:09:04Z</time>
      </trkpt>
      <trkpt lat="45.69412" lon="4.72391">
        <ele>243</ele>
        <time>2010-01-01T05:09:24Z</time>
      </trkpt>
      <trkpt lat="45.69405" lon="4.7239">
        <ele>243</ele>
        <time>2010-01-01T05:09:27Z</time>
      </trkpt>
      <trkpt lat="45.69409" lon="4.72422">
        <ele>239</ele>
        <time>2010-01-01T05:09:36Z</time>
      </trkpt>
      <trkpt lat="45.69422" lon="4.72483">
        <ele>235</ele>
        <time>2010-01-01T05:09:54Z</time>
      </trkpt>
      <trkpt lat="45.69425" lon="4.72555">
        <ele>235</ele>
        <time>2010-01-01T05:10:14Z</time>
      </trkpt>
      <trkpt lat="45.69412" lon="4.72586">
        <ele>234</ele>
        <time>2010-01-01T05:10:24Z</time>
      </trkpt>
      <trkpt lat="45.69403" lon="4.72594">
        <ele>234</ele>
        <time>2010-01-01T05:10:28Z</time>
      </trkpt>
      <trkpt lat="45.69408" lon="4.72623">
        <ele>236</ele>
        <time>2010-01-01T05:10:37Z</time>
      </trkpt>
      <trkpt lat="45.69421" lon="4.72623">
        <ele>243</ele>
        <time>2010-01-01T05:10:42Z</time>
      </trkpt>
      <trkpt lat="45.69433" lon="4.72622">
        <ele>244</ele>
        <time>2010-01-01T05:10:46Z</time>
      </trkpt>
      <trkpt lat="45.6944" lon="4.72635">
        <ele>245</ele>
        <time>2010-01-01T05:10:51Z</time>
      </trkpt>
      <trkpt lat="45.69432" lon="4.7266">
        <ele>244</ele>
        <time>2010-01-01T05:10:59Z</time>
      </trkpt>
      <trkpt lat="45.69417" lon="4.72736">
        <ele>256</ele>
        <time>2010-01-01T05:11:21Z</time>
      </trkpt>
      <trkpt lat="45.69404" lon="4.72817">
        <ele>263</ele>
        <time>2010-01-01T05:11:44Z</time>
      </trkpt>
      <trkpt lat="45.69397" lon="4.72836">
        <ele>271</ele>
        <time>2010-01-01T05:11:50Z</time>
      </trkpt>
      <trkpt lat="45.69375" lon="4.72848">
        <ele>270</ele>
        <time>2010-01-01T05:12:00Z</time>
      </trkpt>
      <trkpt lat="45.69347" lon="4.7286">
        <ele>268</ele>
        <time>2010-01-01T05:12:11Z</time>
      </trkpt>
      <trkpt lat="45.69329" lon="4.72877">
        <ele>264</ele>
        <time>2010-01-01T05:12:20Z</time>
      </trkpt>
      <trkpt lat="45.69323" lon="4.72895">
        <ele>266</ele>
        <time>2010-01-01T05:12:25Z</time>
      </trkpt>
      <trkpt lat="45.69323" lon="4.72905">
        <ele>269</ele>
        <time>2010-01-01T05:12:28Z</time>
      </trkpt>
      <trkpt lat="45.69331" lon="4.72914">
        <ele>273</ele>
        <time>2010-01-01T05:12:32Z</time>
      </trkpt>
      <trkpt lat="45.69455" lon="4.72944">
        <ele>286</ele>
        <time>2010-01-01T05:13:23Z</time>
      </trkpt>
      <trkpt lat="45.69559" lon="4.73014">
        <ele>291</ele>
        <time>2010-01-01T05:14:09Z</time>
      </trkpt>
      <trkpt lat="45.6963" lon="4.73065">
        <ele>293</ele>
        <time>2010-01-01T05:14:41Z</time>
      </trkpt>
      <trkpt lat="45.69733" lon="4.73107">
        <ele>294</ele>
        <time>2010-01-01T05:15:24Z</time>
      </trkpt>
      <trkpt lat="45.69795" lon="4.73118">
        <ele>298</ele>
        <time>2010-01-01T05:15:49Z</time>
      </trkpt>
      <trkpt lat="45.69856" lon="4.73156">
        <ele>301</ele>
        <time>2010-01-01T05:16:15Z</time>
      </trkpt>
      <trkpt lat="45.69923" lon="4.7318">
        <ele>303</ele>
        <time>2010-01-01T05:16:43Z</time>
      </trkpt>
      <trkpt lat="45.69979" lon="4.73216">
        <ele>303</ele>
        <time>2010-01-01T05:17:08Z</time>
      </trkpt>
      <trkpt lat="45.70054" lon="4.73295">
        <ele>303</ele>
        <time>2010-01-01T05:17:45Z</time>
      </trkpt>
      <trkpt lat="45.70117" lon="4.73381">
        <ele>304</ele>
        <time>2010-01-01T05:18:20Z</time>
      </trkpt>
      <trkpt lat="45.7014" lon="4.73416">
        <ele>305</ele>
        <time>2010-01-01T05:18:33Z</time>
      </trkpt>
      <trkpt lat="45.70267" lon="4.73554">
        <ele>307</ele>
        <time>2010-01-01T05:19:37Z</time>
      </trkpt>
      <trkpt lat="45.70298" lon="4.7357">
        <ele>307</ele>
        <time>2010-01-01T05:19:50Z</time>
      </trkpt>
      <trkpt lat="45.70347" lon="4.73629">
        <ele>308</ele>
        <time>2010-01-01T05:20:16Z</time>
      </trkpt>
      <trkpt lat="45.70383" lon="4.73689">
        <ele>310</ele>
        <time>2010-01-01T05:20:38Z</time>
      </trkpt>
      <trkpt lat="45.70465" lon="4.73763">
        <ele>312</ele>
        <time>2010-01-01T05:21:17Z</time>
      </trkpt>
      <trkpt lat="45.70471" lon="4.73768">
        <ele>312</ele>
        <time>2010-01-01T05:21:20Z</time>
      </trkpt>
      <trkpt lat="45.70492" lon="4.73765">
        <ele>312</ele>
        <time>2010-01-01T05:21:28Z</time>
      </trkpt>
      <trkpt lat="45.70502" lon="4.73769">
        <ele>312</ele>
        <time>2010-01-01T05:21:32Z</time>
      </trkpt>
      <trkpt lat="45.70534" lon="4.73844">
        <ele>312</ele>
        <time>2010-01-01T05:21:57Z</time>
      </trkpt>
      <trkpt lat="45.70543" lon="4.73863">
        <ele>312</ele>
        <time>2010-01-01T05:22:03Z</time>
      </trkpt>
      <trkpt lat="45.70547" lon="4.73881">
        <ele>312</ele>
        <time>2010-01-01T05:22:08Z</time>
      </trkpt>
      <trkpt lat="45.70547" lon="4.73889">
        <ele>312</ele>
        <time>2010-01-01T05:22:11Z</time>
      </trkpt>
      <trkpt lat="45.70551" lon="4.73927">
        <ele>312</ele>
        <time>2010-01-01T05:22:22Z</time>
      </trkpt>
      <trkpt lat="45.70563" lon="4.74022">
        <ele>311</ele>
        <time>2010-01-01T05:22:48Z</time>
      </trkpt>
      <trkpt lat="45.70568" lon="4.7406">
        <ele>310</ele>
        <time>2010-01-01T05:22:59Z</time>
      </trkpt>
      <trkpt lat="45.70571" lon="4.74142">
        <ele>309</ele>
        <time>2010-01-01T05:23:22Z</time>
      </trkpt>
      <trkpt lat="45.70587" lon="4.74187">
        <ele>307</ele>
        <time>2010-01-01T05:23:36Z</time>
      </trkpt>
      <trkpt lat="45.70604" lon="4.74241">
        <ele>307</ele>
        <time>2010-01-01T05:23:53Z</time>
      </trkpt>
      <trkpt lat="45.70608" lon="4.74258">
        <ele>306</ele>
        <time>2010-01-01T05:23:58Z</time>
      </trkpt>
      <trkpt lat="45.70613" lon="4.7428">
        <ele>306</ele>
        <time>2010-01-01T05:24:04Z</time>
      </trkpt>
      <trkpt lat="45.70626" lon="4.74335">
        <ele>305</ele>
        <time>2010-01-01T05:24:21Z</time>
      </trkpt>
      <trkpt lat="45.70652" lon="4.74405">
        <ele>305</ele>
        <time>2010-01-01T05:24:43Z</time>
      </trkpt>
      <trkpt lat="45.70667" lon="4.74435">
        <ele>304</ele>
        <time>2010-01-01T05:24:53Z</time>
      </trkpt>
      <trkpt lat="45.70703" lon="4.74464">
        <ele>303</ele>
        <time>2010-01-01T05:25:10Z</time>
      </trkpt>
      <trkpt lat="45.70752" lon="4.74494">
        <ele>303</ele>
        <time>2010-01-01T05:25:31Z</time>
      </trkpt>
      <trkpt lat="45.70763" lon="4.74497">
        <ele>302</ele>
        <time>2010-01-01T05:25:35Z</time>
      </trkpt>
      <trkpt lat="45.70776" lon="4.74505">
        <ele>302</ele>
        <time>2010-01-01T05:25:41Z</time>
      </trkpt>
      <trkpt lat="45.70799" lon="4.74518">
        <ele>301</ele>
        <time>2010-01-01T05:25:51Z</time>
      </trkpt>
      <trkpt lat="45.7083" lon="4.74536">
        <ele>301</ele>
        <time>2010-01-01T05:26:04Z</time>
      </trkpt>
      <trkpt lat="45.70874" lon="4.74564">
        <ele>300</ele>
        <time>2010-01-01T05:26:24Z</time>
      </trkpt>
      <trkpt lat="45.70889" lon="4.74577">
        <ele>300</ele>
        <time>2010-01-01T05:26:31Z</time>
      </trkpt>
      <trkpt lat="45.70913" lon="4.74586">
        <ele>299</ele>
        <time>2010-01-01T05:26:40Z</time>
      </trkpt>
      <trkpt lat="45.7093" lon="4.7459">
        <ele>300</ele>
        <time>2010-01-01T05:26:47Z</time>
      </trkpt>
      <trkpt lat="45.70953" lon="4.74599">
        <ele>301</ele>
        <time>2010-01-01T05:26:57Z</time>
      </trkpt>
      <trkpt lat="45.70974" lon="4.74606">
        <ele>301</ele>
        <time>2010-01-01T05:27:06Z</time>
      </trkpt>
      <trkpt lat="45.70995" lon="4.74605">
        <ele>301</ele>
        <time>2010-01-01T05:27:14Z</time>
      </trkpt>
      <trkpt lat="45.71009" lon="4.746">
        <ele>303</ele>
        <time>2010-01-01T05:27:20Z</time>
      </trkpt>
      <trkpt lat="45.7102" lon="4.74591">
        <ele>304</ele>
        <time>2010-01-01T05:27:25Z</time>
      </trkpt>
      <trkpt lat="45.71034" lon="4.74576">
        <ele>305</ele>
        <time>2010-01-01T05:27:32Z</time>
      </trkpt>
      <trkpt lat="45.71038" lon="4.74577">
        <ele>306</ele>
        <time>2010-01-01T05:27:33Z</time>
      </trkpt>
      <trkpt lat="45.71054" lon="4.74598">
        <ele>306</ele>
        <time>2010-01-01T05:27:42Z</time>
      </trkpt>
      <trkpt lat="45.71054" lon="4.74613">
        <ele>306</ele>
        <time>2010-01-01T05:27:46Z</time>
      </trkpt>
      <trkpt lat="45.71063" lon="4.74625">
        <ele>306</ele>
        <time>2010-01-01T05:27:51Z</time>
      </trkpt>
      <trkpt lat="45.71067" lon="4.74648">
        <ele>306</ele>
        <time>2010-01-01T05:27:58Z</time>
      </trkpt>
      <trkpt lat="45.71083" lon="4.74713">
        <ele>304</ele>
        <time>2010-01-01T05:28:17Z</time>
      </trkpt>
      <trkpt lat="45.71095" lon="4.74739">
        <ele>307</ele>
        <time>2010-01-01T05:28:26Z</time>
      </trkpt>
      <trkpt lat="45.71101" lon="4.74764">
        <ele>306</ele>
        <time>2010-01-01T05:28:33Z</time>
      </trkpt>
      <trkpt lat="45.71098" lon="4.74817">
        <ele>304</ele>
        <time>2010-01-01T05:28:48Z</time>
      </trkpt>
      <trkpt lat="45.71095" lon="4.74829">
        <ele>303</ele>
        <time>2010-01-01T05:28:51Z</time>
      </trkpt>
      <trkpt lat="45.71068" lon="4.74835">
        <ele>300</ele>
        <time>2010-01-01T05:29:02Z</time>
      </trkpt>
      <trkpt lat="45.71027" lon="4.74842">
        <ele>300</ele>
        <time>2010-01-01T05:29:19Z</time>
      </trkpt>
      <trkpt lat="45.70997" lon="4.74857">
        <ele>299</ele>
        <time>2010-01-01T05:29:32Z</time>
      </trkpt>
      <trkpt lat="45.70959" lon="4.74869">
        <ele>298</ele>
        <time>2010-01-01T05:29:47Z</time>
      </trkpt>
      <trkpt lat="45.70941" lon="4.74881">
        <ele>298</ele>
        <time>2010-01-01T05:29:55Z</time>
      </trkpt>
      <trkpt lat="45.70874" lon="4.749">
        <ele>295</ele>
        <time>2010-01-01T05:30:23Z</time>
      </trkpt>
      <trkpt lat="45.70827" lon="4.74922">
        <ele>292</ele>
        <time>2010-01-01T05:30:42Z</time>
      </trkpt>
      <trkpt lat="45.70784" lon="4.7495">
        <ele>291</ele>
        <time>2010-01-01T05:31:01Z</time>
      </trkpt>
      <trkpt lat="45.70776" lon="4.74969">
        <ele>291</ele>
        <time>2010-01-01T05:31:07Z</time>
      </trkpt>
      <trkpt lat="45.70772" lon="4.74985">
        <ele>290</ele>
        <time>2010-01-01T05:31:12Z</time>
      </trkpt>
      <trkpt lat="45.70762" lon="4.74995">
        <ele>289</ele>
        <time>2010-01-01T05:31:17Z</time>
      </trkpt>
      <trkpt lat="45.70751" lon="4.75009">
        <ele>288</ele>
        <time>2010-01-01T05:31:23Z</time>
      </trkpt>
      <trkpt lat="45.7075" lon="4.75055">
        <ele>290</ele>
        <time>2010-01-01T05:31:36Z</time>
      </trkpt>
      <trkpt lat="45.70754" lon="4.75099">
        <ele>289</ele>
        <time>2010-01-01T05:31:48Z</time>
      </trkpt>
      <trkpt lat="45.70754" lon="4.75114">
        <ele>291</ele>
        <time>2010-01-01T05:31:53Z</time>
      </trkpt>
      <trkpt lat="45.70747" lon="4.75125">
        <ele>287</ele>
        <time>2010-01-01T05:31:57Z</time>
      </trkpt>
      <trkpt lat="45.70722" lon="4.75128">
        <ele>287</ele>
        <time>2010-01-01T05:32:07Z</time>
      </trkpt>
      <trkpt lat="45.70667" lon="4.75141">
        <ele>287</ele>
        <time>2010-01-01T05:32:29Z</time>
      </trkpt>
      <trkpt lat="45.70649" lon="4.75135">
        <ele>283</ele>
        <time>2010-01-01T05:32:36Z</time>
      </trkpt>
      <trkpt lat="45.7062" lon="4.75144">
        <ele>282</ele>
        <time>2010-01-01T05:32:48Z</time>
      </trkpt>
      <trkpt lat="45.70602" lon="4.75153">
        <ele>281</ele>
        <time>2010-01-01T05:32:56Z</time>
      </trkpt>
      <trkpt lat="45.70586" lon="4.75168">
        <ele>279</ele>
        <time>2010-01-01T05:33:04Z</time>
      </trkpt>
      <trkpt lat="45.70536" lon="4.75241">
        <ele>278</ele>
        <time>2010-01-01T05:33:32Z</time>
      </trkpt>
      <trkpt lat="45.70515" lon="4.75274">
        <ele>278</ele>
        <time>2010-01-01T05:33:45Z</time>
      </trkpt>
      <trkpt lat="45.70486" lon="4.75333">
        <ele>274</ele>
        <time>2010-01-01T05:34:05Z</time>
      </trkpt>
      <trkpt lat="45.70465" lon="4.7535">
        <ele>274</ele>
        <time>2010-01-01T05:34:14Z</time>
      </trkpt>
      <trkpt lat="45.70442" lon="4.7537">
        <ele>274</ele>
        <time>2010-01-01T05:34:25Z</time>
      </trkpt>
      <trkpt lat="45.70426" lon="4.75396">
        <ele>274</ele>
        <time>2010-01-01T05:34:35Z</time>
      </trkpt>
      <trkpt lat="45.70427" lon="4.75417">
        <ele>277</ele>
        <time>2010-01-01T05:34:41Z</time>
      </trkpt>
      <trkpt lat="45.70438" lon="4.75462">
        <ele>281</ele>
        <time>2010-01-01T05:34:54Z</time>
      </trkpt>
      <trkpt lat="45.70449" lon="4.75497">
        <ele>282</ele>
        <time>2010-01-01T05:35:05Z</time>
      </trkpt>
      <trkpt lat="45.70453" lon="4.75507">
        <ele>286</ele>
        <time>2010-01-01T05:35:08Z</time>
      </trkpt>
      <trkpt lat="45.70459" lon="4.75517">
        <ele>286</ele>
        <time>2010-01-01T05:35:12Z</time>
      </trkpt>
      <trkpt lat="45.70487" lon="4.75516">
        <ele>287</ele>
        <time>2010-01-01T05:35:23Z</time>
      </trkpt>
      <trkpt lat="45.70526" lon="4.75516">
        <ele>292</ele>
        <time>2010-01-01T05:35:39Z</time>
      </trkpt>
      <trkpt lat="45.70548" lon="4.75525">
        <ele>293</ele>
        <time>2010-01-01T05:35:48Z</time>
      </trkpt>
      <trkpt lat="45.70556" lon="4.75539">
        <ele>294</ele>
        <time>2010-01-01T05:35:53Z</time>
      </trkpt>
      <trkpt lat="45.70571" lon="4.75559">
        <ele>296</ele>
        <time>2010-01-01T05:36:01Z</time>
      </trkpt>
      <trkpt lat="45.70578" lon="4.75621">
        <ele>299</ele>
        <time>2010-01-01T05:36:18Z</time>
      </trkpt>
      <trkpt lat="45.70581" lon="4.75671">
        <ele>302</ele>
        <time>2010-01-01T05:36:32Z</time>
      </trkpt>
      <trkpt lat="45.70588" lon="4.75709">
        <ele>305</ele>
        <time>2010-01-01T05:36:43Z</time>
      </trkpt>
      <trkpt lat="45.70596" lon="4.75732">
        <ele>305</ele>
        <time>2010-01-01T05:36:51Z</time>
      </trkpt>
      <trkpt lat="45.7062" lon="4.75779">
        <ele>306</ele>
        <time>2010-01-01T05:37:07Z</time>
      </trkpt>
      <trkpt lat="45.70622" lon="4.75809">
        <ele>306</ele>
        <time>2010-01-01T05:37:15Z</time>
      </trkpt>
      <trkpt lat="45.70628" lon="4.75906">
        <ele>303</ele>
        <time>2010-01-01T05:37:42Z</time>
      </trkpt>
      <trkpt lat="45.70638" lon="4.75961">
        <ele>301</ele>
        <time>2010-01-01T05:37:58Z</time>
      </trkpt>
      <trkpt lat="45.70626" lon="4.76087">
        <ele>294</ele>
        <time>2010-01-01T05:38:34Z</time>
      </trkpt>
      <trkpt lat="45.70627" lon="4.76106">
        <ele>294</ele>
        <time>2010-01-01T05:38:39Z</time>
      </trkpt>
      <trkpt lat="45.70713" lon="4.76108">
        <ele>299</ele>
        <time>2010-01-01T05:39:14Z</time>
      </trkpt>
      <trkpt lat="45.70796" lon="4.76111">
        <ele>304</ele>
        <time>2010-01-01T05:39:47Z</time>
      </trkpt>
      <trkpt lat="45.70844" lon="4.7608">
        <ele>311</ele>
        <time>2010-01-01T05:40:08Z</time>
      </trkpt>
      <trkpt lat="45.70881" lon="4.76082">
        <ele>313</ele>
        <time>2010-01-01T05:40:23Z</time>
      </trkpt>
      <trkpt lat="45.70895" lon="4.7609">
        <ele>311</ele>
        <time>2010-01-01T05:40:29Z</time>
      </trkpt>
      <trkpt lat="45.70911" lon="4.76094">
        <ele>313</ele>
        <time>2010-01-01T05:40:35Z</time>
      </trkpt>
      <trkpt lat="45.70902" lon="4.76178">
        <ele>306</ele>
        <time>2010-01-01T05:40:59Z</time>
      </trkpt>
      <trkpt lat="45.70896" lon="4.76266">
        <ele>299</ele>
        <time>2010-01-01T05:41:24Z</time>
      </trkpt>
      <trkpt lat="45.70888" lon="4.76338">
        <ele>292</ele>
        <time>2010-01-01T05:41:44Z</time>
      </trkpt>
      <trkpt lat="45.70895" lon="4.76357">
        <ele>291</ele>
        <time>2010-01-01T05:41:50Z</time>
      </trkpt>
      <trkpt lat="45.70923" lon="4.76364">
        <ele>291</ele>
        <time>2010-01-01T05:42:02Z</time>
      </trkpt>
      <trkpt lat="45.70942" lon="4.76366">
        <ele>290</ele>
        <time>2010-01-01T05:42:10Z</time>
      </trkpt>
      <trkpt lat="45.70982" lon="4.76367">
        <ele>290</ele>
        <time>2010-01-01T05:42:25Z</time>
      </trkpt>
      <trkpt lat="45.71" lon="4.76359">
        <ele>291</ele>
        <time>2010-01-01T05:42:33Z</time>
      </trkpt>
      <trkpt lat="45.71011" lon="4.76352">
        <ele>294</ele>
        <time>2010-01-01T05:42:38Z</time>
      </trkpt>
      <trkpt lat="45.7102" lon="4.76342">
        <ele>294</ele>
        <time>2010-01-01T05:42:42Z</time>
      </trkpt>
      <trkpt lat="45.71025" lon="4.76346">
        <ele>294</ele>
        <time>2010-01-01T05:42:45Z</time>
      </trkpt>
      <trkpt lat="45.71019" lon="4.76383">
        <ele>291</ele>
        <time>2010-01-01T05:42:55Z</time>
      </trkpt>
      <trkpt lat="45.71015" lon="4.76412">
        <ele>286</ele>
        <time>2010-01-01T05:43:04Z</time>
      </trkpt>
      <trkpt lat="45.71013" lon="4.76427">
        <ele>280</ele>
        <time>2010-01-01T05:43:08Z</time>
      </trkpt>
      <trkpt lat="45.71036" lon="4.76443">
        <ele>280</ele>
        <time>2010-01-01T05:43:18Z</time>
      </trkpt>
      <trkpt lat="45.71038" lon="4.76452">
        <ele>280</ele>
        <time>2010-01-01T05:43:21Z</time>
      </trkpt>
      <trkpt lat="45.71028" lon="4.76463">
        <ele>278</ele>
        <time>2010-01-01T05:43:26Z</time>
      </trkpt>
      <trkpt lat="45.71019" lon="4.76472">
        <ele>276</ele>
        <time>2010-01-01T05:43:31Z</time>
      </trkpt>
      <trkpt lat="45.71011" lon="4.76498">
        <ele>271</ele>
        <time>2010-01-01T05:43:39Z</time>
      </trkpt>
      <trkpt lat="45.71004" lon="4.76526">
        <ele>266</ele>
        <time>2010-01-01T05:43:47Z</time>
      </trkpt>
      <trkpt lat="45.71004" lon="4.76555">
        <ele>263</ele>
        <time>2010-01-01T05:43:55Z</time>
      </trkpt>
      <trkpt lat="45.71022" lon="4.76584">
        <ele>255</ele>
        <time>2010-01-01T05:44:06Z</time>
      </trkpt>
      <trkpt lat="45.71042" lon="4.76618">
        <ele>255</ele>
        <time>2010-01-01T05:44:18Z</time>
      </trkpt>
      <trkpt lat="45.71074" lon="4.7672">
        <ele>245</ele>
        <time>2010-01-01T05:44:49Z</time>
      </trkpt>
      <trkpt lat="45.71088" lon="4.76801">
        <ele>242</ele>
        <time>2010-01-01T05:45:13Z</time>
      </trkpt>
      <trkpt lat="45.71115" lon="4.76879">
        <ele>237</ele>
        <time>2010-01-01T05:45:37Z</time>
      </trkpt>
      <trkpt lat="45.7113" lon="4.76925">
        <ele>234</ele>
        <time>2010-01-01T05:45:51Z</time>
      </trkpt>
      <trkpt lat="45.71143" lon="4.76981">
        <ele>234</ele>
        <time>2010-01-01T05:46:08Z</time>
      </trkpt>
      <trkpt lat="45.71151" lon="4.76991">
        <ele>234</ele>
        <time>2010-01-01T05:46:12Z</time>
      </trkpt>
      <trkpt lat="45.71219" lon="4.77002">
        <ele>235</ele>
        <time>2010-01-01T05:46:39Z</time>
      </trkpt>
      <trkpt lat="45.71298" lon="4.77001">
        <ele>236</ele>
        <time>2010-01-01T05:47:11Z</time>
      </trkpt>
      <trkpt lat="45.71371" lon="4.76988">
        <ele>241</ele>
        <time>2010-01-01T05:47:41Z</time>
      </trkpt>
      <trkpt lat="45.71474" lon="4.76965">
        <ele>247</ele>
        <time>2010-01-01T05:48:22Z</time>
      </trkpt>
      <trkpt lat="45.71568" lon="4.7694">
        <ele>251</ele>
        <time>2010-01-01T05:49:00Z</time>
      </trkpt>
      <trkpt lat="45.71605" lon="4.76928">
        <ele>251</ele>
        <time>2010-01-01T05:49:16Z</time>
      </trkpt>
      <trkpt lat="45.71609" lon="4.76934">
        <ele>251</ele>
        <time>2010-01-01T05:49:18Z</time>
      </trkpt>
      <trkpt lat="45.71609" lon="4.76965">
        <ele>250</ele>
        <time>2010-01-01T05:49:26Z</time>
      </trkpt>
      <trkpt lat="45.71605" lon="4.76988">
        <ele>250</ele>
        <time>2010-01-01T05:49:33Z</time>
      </trkpt>
      <trkpt lat="45.71615" lon="4.76991">
        <ele>250</ele>
        <time>2010-01-01T05:49:37Z</time>
      </trkpt>
      <trkpt lat="45.71656" lon="4.77001">
        <ele>246</ele>
        <time>2010-01-01T05:49:54Z</time>
      </trkpt>
      <trkpt lat="45.71729" lon="4.77018">
        <ele>247</ele>
        <time>2010-01-01T05:50:23Z</time>
      </trkpt>
      <trkpt lat="45.71736" lon="4.77022">
        <ele>247</ele>
        <time>2010-01-01T05:50:26Z</time>
      </trkpt>
      <trkpt lat="45.71742" lon="4.77057">
        <ele>246</ele>
        <time>2010-01-01T05:50:36Z</time>
      </trkpt>
      <trkpt lat="45.71758" lon="4.77056">
        <ele>246</ele>
        <time>2010-01-01T05:50:43Z</time>
      </trkpt>
      <trkpt lat="45.71793" lon="4.77051">
        <ele>245</ele>
        <time>2010-01-01T05:50:57Z</time>
      </trkpt>
      <trkpt lat="45.7181" lon="4.77046">
        <ele>245</ele>
        <time>2010-01-01T05:51:04Z</time>
      </trkpt>
      <trkpt lat="45.71837" lon="4.77056">
        <ele>244</ele>
        <time>2010-01-01T05:51:15Z</time>
      </trkpt>
      <trkpt lat="45.71859" lon="4.77065">
        <ele>244</ele>
        <time>2010-01-01T05:51:24Z</time>
      </trkpt>
      <trkpt lat="45.71891" lon="4.77072">
        <ele>245</ele>
        <time>2010-01-01T05:51:37Z</time>
      </trkpt>
      <trkpt lat="45.71915" lon="4.77083">
        <ele>245</ele>
        <time>2010-01-01T05:51:47Z</time>
      </trkpt>
      <trkpt lat="45.71928" lon="4.77089">
        <ele>245</ele>
        <time>2010-01-01T05:51:53Z</time>
      </trkpt>
      <trkpt lat="45.71932" lon="4.77112">
        <ele>245</ele>
        <time>2010-01-01T05:51:59Z</time>
      </trkpt>
      <trkpt lat="45.71935" lon="4.77146">
        <ele>243</ele>
        <time>2010-01-01T05:52:09Z</time>
      </trkpt>
      <trkpt lat="45.71927" lon="4.77157">
        <ele>242</ele>
        <time>2010-01-01T05:52:13Z</time>
      </trkpt>
      <trkpt lat="45.71915" lon="4.77184">
        <ele>240</ele>
        <time>2010-01-01T05:52:22Z</time>
      </trkpt>
      <trkpt lat="45.71919" lon="4.77224">
        <ele>240</ele>
        <time>2010-01-01T05:52:33Z</time>
      </trkpt>
      <trkpt lat="45.7193" lon="4.77263">
        <ele>239</ele>
        <time>2010-01-01T05:52:45Z</time>
      </trkpt>
      <trkpt lat="45.71984" lon="4.77245">
        <ele>240</ele>
        <time>2010-01-01T05:53:07Z</time>
      </trkpt>
      <trkpt lat="45.72013" lon="4.77236">
        <ele>241</ele>
        <time>2010-01-01T05:53:19Z</time>
      </trkpt>
      <trkpt lat="45.72037" lon="4.77232">
        <ele>241</ele>
        <time>2010-01-01T05:53:29Z</time>
      </trkpt>
      <trkpt lat="45.72055" lon="4.77276">
        <ele>240</ele>
        <time>2010-01-01T05:53:43Z</time>
      </trkpt>
      <trkpt lat="45.7206" lon="4.77318">
        <ele>239</ele>
        <time>2010-01-01T05:53:55Z</time>
      </trkpt>
      <trkpt lat="45.7207" lon="4.77346">
        <ele>239</ele>
        <time>2010-01-01T05:54:04Z</time>
      </trkpt>
      <trkpt lat="45.72066" lon="4.77383">
        <ele>238</ele>
        <time>2010-01-01T05:54:14Z</time>
      </trkpt>
      <trkpt lat="45.72057" lon="4.77405">
        <ele>237</ele>
        <time>2010-01-01T05:54:22Z</time>
      </trkpt>
      <trkpt lat="45.7206" lon="4.7743">
        <ele>235</ele>
        <time>2010-01-01T05:54:29Z</time>
      </trkpt>
      <trkpt lat="45.72081" lon="4.77446">
        <ele>234</ele>
        <time>2010-01-01T05:54:38Z</time>
      </trkpt>
      <trkpt lat="45.72125" lon="4.77465">
        <ele>229</ele>
        <time>2010-01-01T05:54:56Z</time>
      </trkpt>
      <trkpt lat="45.7217" lon="4.77488">
        <ele>223</ele>
        <time>2010-01-01T05:55:16Z</time>
      </trkpt>
      <trkpt lat="45.72186" lon="4.77501">
        <ele>219</ele>
        <time>2010-01-01T05:55:23Z</time>
      </trkpt>
      <trkpt lat="45.72218" lon="4.77513">
        <ele>216</ele>
        <time>2010-01-01T05:55:36Z</time>
      </trkpt>
      <trkpt lat="45.7226" lon="4.77551">
        <ele>212</ele>
        <time>2010-01-01T05:55:56Z</time>
      </trkpt>
      <trkpt lat="45.72296" lon="4.77577">
        <ele>212</ele>
        <time>2010-01-01T05:56:12Z</time>
      </trkpt>
      <trkpt lat="45.72347" lon="4.77626">
        <ele>207</ele>
        <time>2010-01-01T05:56:37Z</time>
      </trkpt>
      <trkpt lat="45.72389" lon="4.77635">
        <ele>206</ele>
        <time>2010-01-01T05:56:54Z</time>
      </trkpt>
      <trkpt lat="45.72401" lon="4.77629">
        <ele>205</ele>
        <time>2010-01-01T05:56:59Z</time>
      </trkpt>
      <trkpt lat="45.72409" lon="4.77633">
        <ele>205</ele>
        <time>2010-01-01T05:57:02Z</time>
      </trkpt>
      <trkpt lat="45.72414" lon="4.77645">
        <ele>204</ele>
        <time>2010-01-01T05:57:06Z</time>
      </trkpt>
      <trkpt lat="45.72415" lon="4.77661">
        <ele>202</ele>
        <time>2010-01-01T05:57:10Z</time>
      </trkpt>
      <trkpt lat="45.72429" lon="4.77682">
        <ele>200</ele>
        <time>2010-01-01T05:57:19Z</time>
      </trkpt>
      <trkpt lat="45.72438" lon="4.77692">
        <ele>200</ele>
        <time>2010-01-01T05:57:23Z</time>
      </trkpt>
      <trkpt lat="45.7246" lon="4.77711">
        <ele>199</ele>
        <time>2010-01-01T05:57:34Z</time>
      </trkpt>
      <trkpt lat="45.72484" lon="4.77731">
        <ele>198</ele>
        <time>2010-01-01T05:57:45Z</time>
      </trkpt>
      <trkpt lat="45.72505" lon="4.77748">
        <ele>195</ele>
        <time>2010-01-01T05:57:54Z</time>
      </trkpt>
      <trkpt lat="45.72528" lon="4.77778">
        <ele>191</ele>
        <time>2010-01-01T05:58:07Z</time>
      </trkpt>
      <trkpt lat="45.72532" lon="4.77796">
        <ele>190</ele>
        <time>2010-01-01T05:58:12Z</time>
      </trkpt>
      <trkpt lat="45.72547" lon="4.77888">
        <ele>182</ele>
        <time>2010-01-01T05:58:38Z</time>
      </trkpt>
      <trkpt lat="45.72546" lon="4.77899">
        <ele>181</ele>
        <time>2010-01-01T05:58:42Z</time>
      </trkpt>
      <trkpt lat="45.72528" lon="4.77908">
        <ele>182</ele>
        <time>2010-01-01T05:58:49Z</time>
      </trkpt>
      <trkpt lat="45.72552" lon="4.77943">
        <ele>179</ele>
        <time>2010-01-01T05:59:03Z</time>
      </trkpt>
      <trkpt lat="45.72557" lon="4.77954">
        <ele>178</ele>
        <time>2010-01-01T05:59:06Z</time>
      </trkpt>
      <trkpt lat="45.72561" lon="4.77964">
        <ele>178</ele>
        <time>2010-01-01T05:59:10Z</time>
      </trkpt>
      <trkpt lat="45.72588" lon="4.77958">
        <ele>177</ele>
        <time>2010-01-01T05:59:20Z</time>
      </trkpt>
      <trkpt lat="45.72612" lon="4.77943">
        <ele>177</ele>
        <time>2010-01-01T05:59:31Z</time>
      </trkpt>
      <trkpt lat="45.72617" lon="4.77938">
        <ele>177</ele>
        <time>2010-01-01T05:59:33Z</time>
      </trkpt>
      <trkpt lat="45.72631" lon="4.77934">
        <ele>177</ele>
        <time>2010-01-01T05:59:39Z</time>
      </trkpt>
      <trkpt lat="45.72636" lon="4.77961">
        <ele>177</ele>
        <time>2010-01-01T05:59:47Z</time>
      </trkpt>
      <trkpt lat="45.72641" lon="4.77996">
        <ele>177</ele>
        <time>2010-01-01T05:59:57Z</time>
      </trkpt>
      <trkpt lat="45.72642" lon="4.78001">
        <ele>179</ele>
        <time>2010-01-01T05:59:58Z</time>
      </trkpt>
      <trkpt lat="45.72658" lon="4.78097">
        <ele>190</ele>
        <time>2010-01-01T06:00:26Z</time>
      </trkpt>
      <trkpt lat="45.7266" lon="4.78124">
        <ele>192</ele>
        <time>2010-01-01T06:00:34Z</time>
      </trkpt>
      <trkpt lat="45.72628" lon="4.78163">
        <ele>192</ele>
        <time>2010-01-01T06:00:50Z</time>
      </trkpt>
      <trkpt lat="45.72627" lon="4.78209">
        <ele>203</ele>
        <time>2010-01-01T06:01:03Z</time>
      </trkpt>
      <trkpt lat="45.72636" lon="4.7827">
        <ele>216</ele>
        <time>2010-01-01T06:01:21Z</time>
      </trkpt>
      <trkpt lat="45.72661" lon="4.78342">
        <ele>226</ele>
        <time>2010-01-01T06:01:43Z</time>
      </trkpt>
      <trkpt lat="45.72682" lon="4.7845">
        <ele>238</ele>
        <time>2010-01-01T06:02:14Z</time>
      </trkpt>
      <trkpt lat="45.72688" lon="4.78483">
        <ele>239</ele>
        <time>2010-01-01T06:02:24Z</time>
      </trkpt>
      <trkpt lat="45.72702" lon="4.78574">
        <ele>246</ele>
        <time>2010-01-01T06:02:50Z</time>
      </trkpt>
      <trkpt lat="45.7271" lon="4.78647">
        <ele>252</ele>
        <time>2010-01-01T06:03:11Z</time>
      </trkpt>
      <trkpt lat="45.7272" lon="4.78687">
        <ele>259</ele>
        <time>2010-01-01T06:03:23Z</time>
      </trkpt>
      <trkpt lat="45.72735" lon="4.78719">
        <ele>262</ele>
        <time>2010-01-01T06:03:33Z</time>
      </trkpt>
      <trkpt lat="45.7277" lon="4.78767">
        <ele>270</ele>
        <time>2010-01-01T06:03:52Z</time>
      </trkpt>
      <trkpt lat="45.72792" lon="4.78792">
        <ele>271</ele>
        <time>2010-01-01T06:04:04Z</time>
      </trkpt>
      <trkpt lat="45.72825" lon="4.78857">
        <ele>277</ele>
        <time>2010-01-01T06:04:26Z</time>
      </trkpt>
      <trkpt lat="45.72837" lon="4.78877">
        <ele>278</ele>
        <time>2010-01-01T06:04:34Z</time>
      </trkpt>
      <trkpt lat="45.72857" lon="4.78928">
        <ele>282</ele>
        <time>2010-01-01T06:04:50Z</time>
      </trkpt>
      <trkpt lat="45.72897" lon="4.79028">
        <ele>284</ele>
        <time>2010-01-01T06:05:22Z</time>
      </trkpt>
      <trkpt lat="45.72936" lon="4.79065">
        <ele>285</ele>
        <time>2010-01-01T06:05:41Z</time>
      </trkpt>
      <trkpt lat="45.72956" lon="4.79087">
        <ele>287</ele>
        <time>2010-01-01T06:05:51Z</time>
      </trkpt>
      <trkpt lat="45.72993" lon="4.79118">
        <ele>287</ele>
        <time>2010-01-01T06:06:08Z</time>
      </trkpt>
      <trkpt lat="45.73028" lon="4.79165">
        <ele>287</ele>
        <time>2010-01-01T06:06:27Z</time>
      </trkpt>
      <trkpt lat="45.73052" lon="4.79215">
        <ele>289</ele>
        <time>2010-01-01T06:06:44Z</time>
      </trkpt>
      <trkpt lat="45.73079" lon="4.79288">
        <ele>290</ele>
        <time>2010-01-01T06:07:07Z</time>
      </trkpt>
      <trkpt lat="45.73102" lon="4.79343">
        <ele>290</ele>
        <time>2010-01-01T06:07:25Z</time>
      </trkpt>
      <trkpt lat="45.73119" lon="4.79367">
        <ele>290</ele>
        <time>2010-01-01T06:07:35Z</time>
      </trkpt>
      <trkpt lat="45.73135" lon="4.79397">
        <ele>290</ele>
        <time>2010-01-01T06:07:45Z</time>
      </trkpt>
      <trkpt lat="45.73136" lon="4.79415">
        <ele>290</ele>
        <time>2010-01-01T06:07:50Z</time>
      </trkpt>
      <trkpt lat="45.73182" lon="4.79484">
        <ele>291</ele>
        <time>2010-01-01T06:08:17Z</time>
      </trkpt>
      <trkpt lat="45.73212" lon="4.79531">
        <ele>293</ele>
        <time>2010-01-01T06:08:35Z</time>
      </trkpt>
      <trkpt lat="45.73245" lon="4.79589">
        <ele>293</ele>
        <time>2010-01-01T06:08:56Z</time>
      </trkpt>
      <trkpt lat="45.73279" lon="4.79626">
        <ele>292</ele>
        <time>2010-01-01T06:09:13Z</time>
      </trkpt>
      <trkpt lat="45.73307" lon="4.79664">
        <ele>292</ele>
        <time>2010-01-01T06:09:28Z</time>
      </trkpt>
      <trkpt lat="45.7342" lon="4.79813">
        <ele>293</ele>
        <time>2010-01-01T06:10:30Z</time>
      </trkpt>
      <trkpt lat="45.7351" lon="4.7992">
        <ele>298</ele>
        <time>2010-01-01T06:11:17Z</time>
      </trkpt>
      <trkpt lat="45.73529" lon="4.79949">
        <ele>299</ele>
        <time>2010-01-01T06:11:28Z</time>
      </trkpt>
      <trkpt lat="45.73573" lon="4.7998">
        <ele>300</ele>
        <time>2010-01-01T06:11:47Z</time>
      </trkpt>
      <trkpt lat="45.73645" lon="4.80027">
        <ele>305</ele>
        <time>2010-01-01T06:12:19Z</time>
      </trkpt>
      <trkpt lat="45.73709" lon="4.80068">
        <ele>311</ele>
        <time>2010-01-01T06:12:47Z</time>
      </trkpt>
      <trkpt lat="45.73729" lon="4.80081">
        <ele>312</ele>
        <time>2010-01-01T06:12:56Z</time>
      </trkpt>
      <trkpt lat="45.73745" lon="4.80091">
        <ele>315</ele>
        <time>2010-01-01T06:13:03Z</time>
      </trkpt>
      <trkpt lat="45.73748" lon="4.80102">
        <ele>315</ele>
        <time>2010-01-01T06:13:06Z</time>
      </trkpt>
      <trkpt lat="45.73752" lon="4.80112">
        <ele>316</ele>
        <time>2010-01-01T06:13:09Z</time>
      </trkpt>
      <trkpt lat="45.73733" lon="4.80177">
        <ele>315</ele>
        <time>2010-01-01T06:13:29Z</time>
      </trkpt>
      <trkpt lat="45.73707" lon="4.80288">
        <ele>312</ele>
        <time>2010-01-01T06:14:02Z</time>
      </trkpt>
      <trkpt lat="45.73703" lon="4.80328">
        <ele>311</ele>
        <time>2010-01-01T06:14:13Z</time>
      </trkpt>
      <trkpt lat="45.73673" lon="4.80428">
        <ele>302</ele>
        <time>2010-01-01T06:14:44Z</time>
      </trkpt>
      <trkpt lat="45.73668" lon="4.80452">
        <ele>301</ele>
        <time>2010-01-01T06:14:50Z</time>
      </trkpt>
      <trkpt lat="45.73688" lon="4.80465">
        <ele>301</ele>
        <time>2010-01-01T06:14:59Z</time>
      </trkpt>
      <trkpt lat="45.73707" lon="4.80479">
        <ele>301</ele>
        <time>2010-01-01T06:15:08Z</time>
      </trkpt>
      <trkpt lat="45.73718" lon="4.80503">
        <ele>297</ele>
        <time>2010-01-01T06:15:16Z</time>
      </trkpt>
      <trkpt lat="45.73718" lon="4.80516">
        <ele>297</ele>
        <time>2010-01-01T06:15:20Z</time>
      </trkpt>
      <trkpt lat="45.73722" lon="4.80527">
        <ele>296</ele>
        <time>2010-01-01T06:15:23Z</time>
      </trkpt>
      <trkpt lat="45.73724" lon="4.80538">
        <ele>296</ele>
        <time>2010-01-01T06:15:26Z</time>
      </trkpt>
      <trkpt lat="45.73729" lon="4.80546">
        <ele>296</ele>
        <time>2010-01-01T06:15:29Z</time>
      </trkpt>
      <trkpt lat="45.73748" lon="4.80556">
        <ele>295</ele>
        <time>2010-01-01T06:15:37Z</time>
      </trkpt>
      <trkpt lat="45.73794" lon="4.80578">
        <ele>296</ele>
        <time>2010-01-01T06:15:57Z</time>
      </trkpt>
      <trkpt lat="45.73807" lon="4.80581">
        <ele>296</ele>
        <time>2010-01-01T06:16:02Z</time>
      </trkpt>
      <trkpt lat="45.73816" lon="4.80573">
        <ele>296</ele>
        <time>2010-01-01T06:16:06Z</time>
      </trkpt>
      <trkpt lat="45.73844" lon="4.80558">
        <ele>299</ele>
        <time>2010-01-01T06:16:18Z</time>
      </trkpt>
      <trkpt lat="45.7386" lon="4.80555">
        <ele>300</ele>
        <time>2010-01-01T06:16:24Z</time>
      </trkpt>
      <trkpt lat="45.73867" lon="4.80557">
        <ele>300</ele>
        <time>2010-01-01T06:16:28Z</time>
      </trkpt>
      <trkpt lat="45.73888" lon="4.80568">
        <ele>299</ele>
        <time>2010-01-01T06:16:36Z</time>
      </trkpt>
      <trkpt lat="45.73898" lon="4.80584">
        <ele>292</ele>
        <time>2010-01-01T06:16:42Z</time>
      </trkpt>
      <trkpt lat="45.73907" lon="4.80613">
        <ele>290</ele>
        <time>2010-01-01T06:16:51Z</time>
      </trkpt>
      <trkpt lat="45.73915" lon="4.80636">
        <ele>287</ele>
        <time>2010-01-01T06:16:59Z</time>
      </trkpt>
      <trkpt lat="45.73927" lon="4.80651">
        <ele>287</ele>
        <time>2010-01-01T06:17:05Z</time>
      </trkpt>
      <trkpt lat="45.73937" lon="4.80654">
        <ele>288</ele>
        <time>2010-01-01T06:17:09Z</time>
      </trkpt>
      <trkpt lat="45.73949" lon="4.80652">
        <ele>288</ele>
        <time>2010-01-01T06:17:14Z</time>
      </trkpt>
      <trkpt lat="45.73971" lon="4.80639">
        <ele>289</ele>
        <time>2010-01-01T06:17:23Z</time>
      </trkpt>
      <trkpt lat="45.73985" lon="4.80632">
        <ele>289</ele>
        <time>2010-01-01T06:17:29Z</time>
      </trkpt>
      <trkpt lat="45.74015" lon="4.80629">
        <ele>290</ele>
        <time>2010-01-01T06:17:41Z</time>
      </trkpt>
      <trkpt lat="45.74032" lon="4.80635">
        <ele>289</ele>
        <time>2010-01-01T06:17:48Z</time>
      </trkpt>
      <trkpt lat="45.74056" lon="4.80645">
        <ele>288</ele>
        <time>2010-01-01T06:17:58Z</time>
      </trkpt>
      <trkpt lat="45.74071" lon="4.80649">
        <ele>287</ele>
        <time>2010-01-01T06:18:04Z</time>
      </trkpt>
      <trkpt lat="45.74088" lon="4.80651">
        <ele>286</ele>
        <time>2010-01-01T06:18:11Z</time>
      </trkpt>
      <trkpt lat="45.7411" lon="4.80649">
        <ele>288</ele>
        <time>2010-01-01T06:18:20Z</time>
      </trkpt>
      <trkpt lat="45.74137" lon="4.80646">
        <ele>288</ele>
        <time>2010-01-01T06:18:31Z</time>
      </trkpt>
      <trkpt lat="45.74168" lon="4.80644">
        <ele>289</ele>
        <time>2010-01-01T06:18:43Z</time>
      </trkpt>
      <trkpt lat="45.74181" lon="4.80649">
        <ele>289</ele>
        <time>2010-01-01T06:18:49Z</time>
      </trkpt>
      <trkpt lat="45.74194" lon="4.80657">
        <ele>290</ele>
        <time>2010-01-01T06:18:54Z</time>
      </trkpt>
      <trkpt lat="45.74222" lon="4.80688">
        <ele>281</ele>
        <time>2010-01-01T06:19:08Z</time>
      </trkpt>
      <trkpt lat="45.74247" lon="4.80698">
        <ele>281</ele>
        <time>2010-01-01T06:19:19Z</time>
      </trkpt>
      <trkpt lat="45.74327" lon="4.80748">
        <ele>282</ele>
        <time>2010-01-01T06:19:54Z</time>
      </trkpt>
      <trkpt lat="45.74357" lon="4.80765">
        <ele>278</ele>
        <time>2010-01-01T06:20:07Z</time>
      </trkpt>
      <trkpt lat="45.74386" lon="4.80779">
        <ele>278</ele>
        <time>2010-01-01T06:20:19Z</time>
      </trkpt>
      <trkpt lat="45.74403" lon="4.8079">
        <ele>277</ele>
        <time>2010-01-01T06:20:27Z</time>
      </trkpt>
      <trkpt lat="45.74414" lon="4.80799">
        <ele>276</ele>
        <time>2010-01-01T06:20:32Z</time>
      </trkpt>
      <trkpt lat="45.74425" lon="4.80815">
        <ele>279</ele>
        <time>2010-01-01T06:20:38Z</time>
      </trkpt>
      <trkpt lat="45.74439" lon="4.80846">
        <ele>271</ele>
        <time>2010-01-01T06:20:48Z</time>
      </trkpt>
      <trkpt lat="45.74452" lon="4.80866">
        <ele>270</ele>
        <time>2010-01-01T06:20:56Z</time>
      </trkpt>
      <trkpt lat="45.74465" lon="4.80873">
        <ele>271</ele>
        <time>2010-01-01T06:21:01Z</time>
      </trkpt>
      <trkpt lat="45.74493" lon="4.80892">
        <ele>269</ele>
        <time>2010-01-01T06:21:14Z</time>
      </trkpt>
      <trkpt lat="45.7451" lon="4.80898">
        <ele>275</ele>
        <time>2010-01-01T06:21:21Z</time>
      </trkpt>
      <trkpt lat="45.7454" lon="4.8091">
        <ele>278</ele>
        <time>2010-01-01T06:21:33Z</time>
      </trkpt>
      <trkpt lat="45.74558" lon="4.80927">
        <ele>270</ele>
        <time>2010-01-01T06:21:42Z</time>
      </trkpt>
      <trkpt lat="45.74576" lon="4.80953">
        <ele>268</ele>
        <time>2010-01-01T06:21:52Z</time>
      </trkpt>
      <trkpt lat="45.74606" lon="4.80998">
        <ele>274</ele>
        <time>2010-01-01T06:22:10Z</time>
      </trkpt>
      <trkpt lat="45.74619" lon="4.8102">
        <ele>268</ele>
        <time>2010-01-01T06:22:18Z</time>
      </trkpt>
      <trkpt lat="45.74625" lon="4.81046">
        <ele>266</ele>
        <time>2010-01-01T06:22:25Z</time>
      </trkpt>
      <trkpt lat="45.74629" lon="4.81066">
        <ele>265</ele>
        <time>2010-01-01T06:22:31Z</time>
      </trkpt>
      <trkpt lat="45.7464" lon="4.81086">
        <ele>258</ele>
        <time>2010-01-01T06:22:38Z</time>
      </trkpt>
      <trkpt lat="45.74654" lon="4.81104">
        <ele>259</ele>
        <time>2010-01-01T06:22:46Z</time>
      </trkpt>
      <trkpt lat="45.74673" lon="4.81118">
        <ele>265</ele>
        <time>2010-01-01T06:22:54Z</time>
      </trkpt>
      <trkpt lat="45.74723" lon="4.81141">
        <ele>266</ele>
        <time>2010-01-01T06:23:15Z</time>
      </trkpt>
      <trkpt lat="45.74763" lon="4.81161">
        <ele>270</ele>
        <time>2010-01-01T06:23:32Z</time>
      </trkpt>
      <trkpt lat="45.74781" lon="4.81172">
        <ele>265</ele>
        <time>2010-01-01T06:23:40Z</time>
      </trkpt>
      <trkpt lat="45.74782" lon="4.81172">
        <ele>265</ele>
        <time>2010-01-01T06:23:40Z</time>
      </trkpt>
      <trkpt lat="45.74793" lon="4.81195">
        <ele>264</ele>
        <time>2010-01-01T06:23:48Z</time>
      </trkpt>
      <trkpt lat="45.74797" lon="4.81227">
        <ele>261</ele>
        <time>2010-01-01T06:23:57Z</time>
      </trkpt>
      <trkpt lat="45.74802" lon="4.81246">
        <ele>260</ele>
        <time>2010-01-01T06:24:03Z</time>
      </trkpt>
      <trkpt lat="45.74811" lon="4.81257">
        <ele>252</ele>
        <time>2010-01-01T06:24:08Z</time>
      </trkpt>
      <trkpt lat="45.74837" lon="4.81278">
        <ele>257</ele>
        <time>2010-01-01T06:24:19Z</time>
      </trkpt>
      <trkpt lat="45.74853" lon="4.81291">
        <ele>257</ele>
        <time>2010-01-01T06:24:27Z</time>
      </trkpt>
      <trkpt lat="45.74858" lon="4.81307">
        <ele>256</ele>
        <time>2010-01-01T06:24:32Z</time>
      </trkpt>
      <trkpt lat="45.74881" lon="4.81359">
        <ele>245</ele>
        <time>2010-01-01T06:24:49Z</time>
      </trkpt>
      <trkpt lat="45.74907" lon="4.81389">
        <ele>243</ele>
        <time>2010-01-01T06:25:02Z</time>
      </trkpt>
      <trkpt lat="45.74922" lon="4.81403">
        <ele>245</ele>
        <time>2010-01-01T06:25:09Z</time>
      </trkpt>
      <trkpt lat="45.74952" lon="4.81422">
        <ele>238</ele>
        <time>2010-01-01T06:25:23Z</time>
      </trkpt>
      <trkpt lat="45.74974" lon="4.81427">
        <ele>240</ele>
        <time>2010-01-01T06:25:32Z</time>
      </trkpt>
      <trkpt lat="45.75002" lon="4.81429">
        <ele>246</ele>
        <time>2010-01-01T06:25:43Z</time>
      </trkpt>
      <trkpt lat="45.75032" lon="4.81427">
        <ele>245</ele>
        <time>2010-01-01T06:25:55Z</time>
      </trkpt>
      <trkpt lat="45.75039" lon="4.81423">
        <ele>245</ele>
        <time>2010-01-01T06:25:58Z</time>
      </trkpt>
      <trkpt lat="45.75055" lon="4.81425">
        <ele>246</ele>
        <time>2010-01-01T06:26:04Z</time>
      </trkpt>
      <trkpt lat="45.75064" lon="4.8143">
        <ele>247</ele>
        <time>2010-01-01T06:26:08Z</time>
      </trkpt>
      <trkpt lat="45.75074" lon="4.8145">
        <ele>245</ele>
        <time>2010-01-01T06:26:15Z</time>
      </trkpt>
      <trkpt lat="45.75072" lon="4.81463">
        <ele>244</ele>
        <time>2010-01-01T06:26:19Z</time>
      </trkpt>
      <trkpt lat="45.75066" lon="4.81482">
        <ele>242</ele>
        <time>2010-01-01T06:26:25Z</time>
      </trkpt>
      <trkpt lat="45.75064" lon="4.81511">
        <ele>234</ele>
        <time>2010-01-01T06:26:33Z</time>
      </trkpt>
      <trkpt lat="45.75063" lon="4.81542">
        <ele>230</ele>
        <time>2010-01-01T06:26:41Z</time>
      </trkpt>
      <trkpt lat="45.75061" lon="4.81575">
        <ele>228</ele>
        <time>2010-01-01T06:26:51Z</time>
      </trkpt>
      <trkpt lat="45.75068" lon="4.81592">
        <ele>224</ele>
        <time>2010-01-01T06:26:56Z</time>
      </trkpt>
      <trkpt lat="45.75082" lon="4.81624">
        <ele>220</ele>
        <time>2010-01-01T06:27:07Z</time>
      </trkpt>
      <trkpt lat="45.7509" lon="4.81651">
        <ele>229</ele>
        <time>2010-01-01T06:27:15Z</time>
      </trkpt>
      <trkpt lat="45.75107" lon="4.81701">
        <ele>222</ele>
        <time>2010-01-01T06:27:31Z</time>
      </trkpt>
      <trkpt lat="45.75111" lon="4.81727">
        <ele>220</ele>
        <time>2010-01-01T06:27:38Z</time>
      </trkpt>
      <trkpt lat="45.75111" lon="4.81789">
        <ele>206</ele>
        <time>2010-01-01T06:27:55Z</time>
      </trkpt>
      <trkpt lat="45.75116" lon="4.81813">
        <ele>204</ele>
        <time>2010-01-01T06:28:02Z</time>
      </trkpt>
      <trkpt lat="45.75137" lon="4.81845">
        <ele>197</ele>
        <time>2010-01-01T06:28:14Z</time>
      </trkpt>
      <trkpt lat="45.75157" lon="4.81872">
        <ele>196</ele>
        <time>2010-01-01T06:28:26Z</time>
      </trkpt>
      <trkpt lat="45.75169" lon="4.81901">
        <ele>200</ele>
        <time>2010-01-01T06:28:35Z</time>
      </trkpt>
      <trkpt lat="45.75183" lon="4.81938">
        <ele>193</ele>
        <time>2010-01-01T06:28:47Z</time>
      </trkpt>
      <trkpt lat="45.75188" lon="4.81948">
        <ele>192</ele>
        <time>2010-01-01T06:28:50Z</time>
      </trkpt>
      <trkpt lat="45.75199" lon="4.8195">
        <ele>192</ele>
        <time>2010-01-01T06:28:55Z</time>
      </trkpt>
      <trkpt lat="45.752" lon="4.81963">
        <ele>190</ele>
        <time>2010-01-01T06:28:58Z</time>
      </trkpt>
      <trkpt lat="45.7521" lon="4.81966">
        <ele>191</ele>
        <time>2010-01-01T06:29:02Z</time>
      </trkpt>
      <trkpt lat="45.75219" lon="4.81975">
        <ele>190</ele>
        <time>2010-01-01T06:29:07Z</time>
      </trkpt>
      <trkpt lat="45.75224" lon="4.81985">
        <ele>190</ele>
        <time>2010-01-01T06:29:10Z</time>
      </trkpt>
      <trkpt lat="45.75225" lon="4.81992">
        <ele>190</ele>
        <time>2010-01-01T06:29:12Z</time>
      </trkpt>
      <trkpt lat="45.75211" lon="4.81994">
        <ele>189</ele>
        <time>2010-01-01T06:29:18Z</time>
      </trkpt>
      <trkpt lat="45.7519" lon="4.81995">
        <ele>186</ele>
        <time>2010-01-01T06:29:27Z</time>
      </trkpt>
      <trkpt lat="45.75176" lon="4.82004">
        <ele>180</ele>
        <time>2010-01-01T06:29:33Z</time>
      </trkpt>
      <trkpt lat="45.75155" lon="4.82029">
        <ele>174</ele>
        <time>2010-01-01T06:29:44Z</time>
      </trkpt>
      <trkpt lat="45.75138" lon="4.82056">
        <ele>172</ele>
        <time>2010-01-01T06:29:54Z</time>
      </trkpt>
      <trkpt lat="45.75129" lon="4.8208">
        <ele>172</ele>
        <time>2010-01-01T06:30:01Z</time>
      </trkpt>
      <trkpt lat="45.7513" lon="4.821">
        <ele>169</ele>
        <time>2010-01-01T06:30:07Z</time>
      </trkpt>
      <trkpt lat="45.75121" lon="4.82113">
        <ele>169</ele>
        <time>2010-01-01T06:30:12Z</time>
      </trkpt>
      <trkpt lat="45.75132" lon="4.82138">
        <ele>169</ele>
        <time>2010-01-01T06:30:20Z</time>
      </trkpt>
      <trkpt lat="45.75148" lon="4.82162">
        <ele>169</ele>
        <time>2010-01-01T06:30:30Z</time>
      </trkpt>
      <trkpt lat="45.75151" lon="4.8218">
        <ele>168</ele>
        <time>2010-01-01T06:30:35Z</time>
      </trkpt>
      <trkpt lat="45.75141" lon="4.82212">
        <ele>167</ele>
        <time>2010-01-01T06:30:44Z</time>
      </trkpt>
      <trkpt lat="45.7511" lon="4.82304">
        <ele>168</ele>
        <time>2010-01-01T06:31:13Z</time>
      </trkpt>
      <trkpt lat="45.75105" lon="4.8231">
        <ele>168</ele>
        <time>2010-01-01T06:31:16Z</time>
      </trkpt>
      <trkpt lat="45.75097" lon="4.82311">
        <ele>168</ele>
        <time>2010-01-01T06:31:19Z</time>
      </trkpt>
      <trkpt lat="45.75059" lon="4.82278">
        <ele>170</ele>
        <time>2010-01-01T06:31:37Z</time>
      </trkpt>
      <trkpt lat="45.75015" lon="4.82218">
        <ele>170</ele>
        <time>2010-01-01T06:32:01Z</time>
      </trkpt>
      <trkpt lat="45.74975" lon="4.82138">
        <ele>168</ele>
        <time>2010-01-01T06:32:28Z</time>
      </trkpt>
      <trkpt lat="45.74893" lon="4.82028">
        <ele>167</ele>
        <time>2010-01-01T06:33:13Z</time>
      </trkpt>
      <trkpt lat="45.7483" lon="4.81935">
        <ele>167</ele>
        <time>2010-01-01T06:33:50Z</time>
      </trkpt>
      <trkpt lat="45.74774" lon="4.81855">
        <ele>165</ele>
        <time>2010-01-01T06:34:21Z</time>
      </trkpt>
      <trkpt lat="45.74725" lon="4.81799">
        <ele>164</ele>
        <time>2010-01-01T06:34:46Z</time>
      </trkpt>
      <trkpt lat="45.74701" lon="4.81787">
        <ele>164</ele>
        <time>2010-01-01T06:34:57Z</time>
      </trkpt>
      <trkpt lat="45.74668" lon="4.81771">
        <ele>163</ele>
        <time>2010-01-01T06:35:11Z</time>
      </trkpt>
      <trkpt lat="45.74651" lon="4.81739">
        <ele>164</ele>
        <time>2010-01-01T06:35:22Z</time>
      </trkpt>
      <trkpt lat="45.74643" lon="4.81707">
        <ele>164</ele>
        <time>2010-01-01T06:35:31Z</time>
      </trkpt>
      <trkpt lat="45.74624" lon="4.81686">
        <ele>165</ele>
        <time>2010-01-01T06:35:41Z</time>
      </trkpt>
      <trkpt lat="45.74589" lon="4.81651">
        <ele>166</ele>
        <time>2010-01-01T06:35:58Z</time>
      </trkpt>
      <trkpt lat="45.74529" lon="4.816">
        <ele>163</ele>
        <time>2010-01-01T06:36:26Z</time>
      </trkpt>
      <trkpt lat="45.74521" lon="4.81583">
        <ele>162</ele>
        <time>2010-01-01T06:36:32Z</time>
      </trkpt>
      <trkpt lat="45.74486" lon="4.8156">
        <ele>162</ele>
        <time>2010-01-01T06:36:47Z</time>
      </trkpt>
      <trkpt lat="45.74425" lon="4.81514">
        <ele>163</ele>
        <time>2010-01-01T06:37:15Z</time>
      </trkpt>
      <trkpt lat="45.74386" lon="4.81502">
        <ele>164</ele>
        <time>2010-01-01T06:37:30Z</time>
      </trkpt>
      <trkpt lat="45.74314" lon="4.81484">
        <ele>164</ele>
        <time>2010-01-01T06:38:00Z</time>
      </trkpt>
      <trkpt lat="45.74283" lon="4.81453">
        <ele>163</ele>
        <time>2010-01-01T06:38:15Z</time>
      </trkpt>
      <trkpt lat="45.74254" lon="4.81441">
        <ele>163</ele>
        <time>2010-01-01T06:38:27Z</time>
      </trkpt>
      <trkpt lat="45.74034" lon="4.81407">
        <ele>164</ele>
        <time>2010-01-01T06:39:56Z</time>
      </trkpt>
      <trkpt lat="45.73889" lon="4.8143">
        <ele>165</ele>
        <time>2010-01-01T06:40:54Z</time>
      </trkpt>
      <trkpt lat="45.73846" lon="4.81429">
        <ele>165</ele>
        <time>2010-01-01T06:41:11Z</time>
      </trkpt>
      <trkpt lat="45.73756" lon="4.8145">
        <ele>166</ele>
        <time>2010-01-01T06:41:48Z</time>
      </trkpt>
      <trkpt lat="45.7368" lon="4.81465">
        <ele>166</ele>
        <time>2010-01-01T06:42:18Z</time>
      </trkpt>
      <trkpt lat="45.73495" lon="4.81504">
        <ele>165</ele>
        <time>2010-01-01T06:43:33Z</time>
      </trkpt>
      <trkpt lat="45.7344" lon="4.81516">
        <ele>165</ele>
        <time>2010-01-01T06:43:56Z</time>
      </trkpt>
      <trkpt lat="45.73314" lon="4.81552">
        <ele>164</ele>
        <time>2010-01-01T06:44:47Z</time>
      </trkpt>
      <trkpt lat="45.73301" lon="4.81562">
        <ele>164</ele>
        <time>2010-01-01T06:44:53Z</time>
      </trkpt>
      <trkpt lat="45.73239" lon="4.81573">
        <ele>165</ele>
        <time>2010-01-01T06:45:18Z</time>
      </trkpt>
      <trkpt lat="45.73216" lon="4.81591">
        <ele>166</ele>
        <time>2010-01-01T06:45:28Z</time>
      </trkpt>
      <trkpt lat="45.73201" lon="4.81625">
        <ele>166</ele>
        <time>2010-01-01T06:45:39Z</time>
      </trkpt>
      <trkpt lat="45.73171" lon="4.81687">
        <ele>165</ele>
        <time>2010-01-01T06:46:01Z</time>
      </trkpt>
      <trkpt lat="45.73124" lon="4.81746">
        <ele>164</ele>
        <time>2010-01-01T06:46:25Z</time>
      </trkpt>
      <trkpt lat="45.73087" lon="4.81774">
        <ele>164</ele>
        <time>2010-01-01T06:46:42Z</time>
      </trkpt>
      <trkpt lat="45.73014" lon="4.81815">
        <ele>164</ele>
        <time>2010-01-01T06:47:13Z</time>
      </trkpt>
      <trkpt lat="45.72959" lon="4.81831">
        <ele>164</ele>
        <time>2010-01-01T06:47:36Z</time>
      </trkpt>
      <trkpt lat="45.7292" lon="4.81836">
        <ele>164</ele>
        <time>2010-01-01T06:47:52Z</time>
      </trkpt>
      <trkpt lat="45.7289" lon="4.81841">
        <ele>164</ele>
        <time>2010-01-01T06:48:04Z</time>
      </trkpt>
      <trkpt lat="45.72892" lon="4.81848">
        <ele>164</ele>
        <time>2010-01-01T06:48:06Z</time>
      </trkpt>
      <trkpt lat="45.72944" lon="4.81853">
        <ele>164</ele>
        <time>2010-01-01T06:48:27Z</time>
      </trkpt>
      <trkpt lat="45.7307" lon="4.81858">
        <ele>163</ele>
        <time>2010-01-01T06:49:17Z</time>
      </trkpt>
      <trkpt lat="45.73188" lon="4.81876">
        <ele>164</ele>
        <time>2010-01-01T06:50:05Z</time>
      </trkpt>
      <trkpt lat="45.73307" lon="4.81903">
        <ele>165</ele>
        <time>2010-01-01T06:50:53Z</time>
      </trkpt>
      <trkpt lat="45.73346" lon="4.81919">
        <ele>164</ele>
        <time>2010-01-01T06:51:09Z</time>
      </trkpt>
      <trkpt lat="45.73389" lon="4.8193">
        <ele>165</ele>
        <time>2010-01-01T06:51:27Z</time>
      </trkpt>
      <trkpt lat="45.73426" lon="4.81935">
        <ele>166</ele>
        <time>2010-01-01T06:51:42Z</time>
      </trkpt>
      <trkpt lat="45.73456" lon="4.81943">
        <ele>166</ele>
        <time>2010-01-01T06:51:54Z</time>
      </trkpt>
      <trkpt lat="45.73458" lon="4.81924">
        <ele>166</ele>
        <time>2010-01-01T06:51:59Z</time>
      </trkpt>
      <trkpt lat="45.73414" lon="4.81894">
        <ele>167</ele>
        <time>2010-01-01T06:52:19Z</time>
      </trkpt>
      <trkpt lat="45.73392" lon="4.81898">
        <ele>166</ele>
        <time>2010-01-01T06:52:28Z</time>
      </trkpt>
      <trkpt lat="45.73376" lon="4.81941">
        <ele>165</ele>
        <time>2010-01-01T06:52:41Z</time>
      </trkpt>
      <trkpt lat="45.73307" lon="4.822">
        <ele>167</ele>
        <time>2010-01-01T06:53:59Z</time>
      </trkpt>
      <trkpt lat="45.73307" lon="4.82213">
        <ele>167</ele>
        <time>2010-01-01T06:54:02Z</time>
      </trkpt>
      <trkpt lat="45.73309" lon="4.82216">
        <ele>168</ele>
        <time>2010-01-01T06:54:04Z</time>
      </trkpt>
      <trkpt lat="45.73314" lon="4.82217">
        <ele>168</ele>
        <time>2010-01-01T06:54:06Z</time>
      </trkpt>
      <trkpt lat="45.73318" lon="4.82215">
        <ele>168</ele>
        <time>2010-01-01T06:54:07Z</time>
      </trkpt>
      <trkpt lat="45.73316" lon="4.82212">
        <ele>168</ele>
        <time>2010-01-01T06:54:08Z</time>
      </trkpt>
      <trkpt lat="45.73314" lon="4.82211">
        <ele>167</ele>
        <time>2010-01-01T06:54:09Z</time>
      </trkpt>
      <trkpt lat="45.73312" lon="4.8221">
        <ele>167</ele>
        <time>2010-01-01T06:54:10Z</time>
      </trkpt>
      <trkpt lat="45.73312" lon="4.82207">
        <ele>167</ele>
        <time>2010-01-01T06:54:11Z</time>
      </trkpt>
      <trkpt lat="45.73314" lon="4.82204">
        <ele>167</ele>
        <time>2010-01-01T06:54:12Z</time>
      </trkpt>
      <trkpt lat="45.73318" lon="4.82205">
        <ele>167</ele>
        <time>2010-01-01T06:54:13Z</time>
      </trkpt>
      <trkpt lat="45.73321" lon="4.82203">
        <ele>167</ele>
        <time>2010-01-01T06:54:15Z</time>
      </trkpt>
      <trkpt lat="45.7332" lon="4.82198">
        <ele>167</ele>
        <time>2010-01-01T06:54:16Z</time>
      </trkpt>
      <trkpt lat="45.73324" lon="4.82198">
        <ele>167</ele>
        <time>2010-01-01T06:54:18Z</time>
      </trkpt>
      <trkpt lat="45.73327" lon="4.82197">
        <ele>167</ele>
        <time>2010-01-01T06:54:19Z</time>
      </trkpt>
      <trkpt lat="45.73328" lon="4.82189">
        <ele>166</ele>
        <time>2010-01-01T06:54:21Z</time>
      </trkpt>
      <trkpt lat="45.73324" lon="4.82186">
        <ele>166</ele>
        <time>2010-01-01T06:54:23Z</time>
      </trkpt>
      <trkpt lat="45.73282" lon="4.82172">
        <ele>166</ele>
        <time>2010-01-01T06:54:41Z</time>
      </trkpt>
      <trkpt lat="45.73209" lon="4.82131">
        <ele>165</ele>
        <time>2010-01-01T06:55:12Z</time>
      </trkpt>
      <trkpt lat="45.7319" lon="4.82126">
        <ele>165</ele>
        <time>2010-01-01T06:55:20Z</time>
      </trkpt>
      <trkpt lat="45.73151" lon="4.8212">
        <ele>165</ele>
        <time>2010-01-01T06:55:35Z</time>
      </trkpt>
      <trkpt lat="45.73075" lon="4.82104">
        <ele>164</ele>
        <time>2010-01-01T06:56:06Z</time>
      </trkpt>
      <trkpt lat="45.73028" lon="4.82095">
        <ele>166</ele>
        <time>2010-01-01T06:56:25Z</time>
      </trkpt>
      <trkpt lat="45.73" lon="4.82089">
        <ele>167</ele>
        <time>2010-01-01T06:56:36Z</time>
      </trkpt>
      <trkpt lat="45.72996" lon="4.82102">
        <ele>167</ele>
        <time>2010-01-01T06:56:40Z</time>
      </trkpt>
      <trkpt lat="45.72996" lon="4.82119">
        <ele>166</ele>
        <time>2010-01-01T06:56:45Z</time>
      </trkpt>
      <trkpt lat="45.72991" lon="4.82129">
        <ele>166</ele>
        <time>2010-01-01T06:56:48Z</time>
      </trkpt>
      <trkpt lat="45.72985" lon="4.82135">
        <ele>166</ele>
        <time>2010-01-01T06:56:51Z</time>
      </trkpt>
      <trkpt lat="45.72947" lon="4.82134">
        <ele>166</ele>
        <time>2010-01-01T06:57:06Z</time>
      </trkpt>
      <trkpt lat="45.72944" lon="4.82134">
        <ele>166</ele>
        <time>2010-01-01T06:57:07Z</time>
      </trkpt>
      <trkpt lat="45.72921" lon="4.82101">
        <ele>165</ele>
        <time>2010-01-01T06:57:21Z</time>
      </trkpt>
      <trkpt lat="45.72872" lon="4.82093">
        <ele>167</ele>
        <time>2010-01-01T06:57:40Z</time>
      </trkpt>
      <trkpt lat="45.72853" lon="4.82103">
        <ele>168</ele>
        <time>2010-01-01T06:57:48Z</time>
      </trkpt>
      <trkpt lat="45.72831" lon="4.82094">
        <ele>169</ele>
        <time>2010-01-01T06:57:58Z</time>
      </trkpt>
      <trkpt lat="45.72801" lon="4.8208">
        <ele>167</ele>
        <time>2010-01-01T06:58:10Z</time>
      </trkpt>
      <trkpt lat="45.7279" lon="4.82077">
        <ele>167</ele>
        <time>2010-01-01T06:58:15Z</time>
      </trkpt>
      <trkpt lat="45.72765" lon="4.82085">
        <ele>169</ele>
        <time>2010-01-01T06:58:25Z</time>
      </trkpt>
      <trkpt lat="45.72724" lon="4.82083">
        <ele>166</ele>
        <time>2010-01-01T06:58:41Z</time>
      </trkpt>
      <trkpt lat="45.72692" lon="4.82082">
        <ele>164</ele>
        <time>2010-01-01T06:58:54Z</time>
      </trkpt>
      <trkpt lat="45.72625" lon="4.8209">
        <ele>164</ele>
        <time>2010-01-01T06:59:21Z</time>
      </trkpt>
      <trkpt lat="45.72577" lon="4.82096">
        <ele>165</ele>
        <time>2010-01-01T06:59:41Z</time>
      </trkpt>
      <trkpt lat="45.72535" lon="4.8212">
        <ele>166</ele>
        <time>2010-01-01T06:59:59Z</time>
      </trkpt>
      <trkpt lat="45.72504" lon="4.8215">
        <ele>165</ele>
        <time>2010-01-01T07:00:14Z</time>
      </trkpt>
      <trkpt lat="45.72379" lon="4.82305">
        <ele>164</ele>
        <time>2010-01-01T07:01:20Z</time>
      </trkpt>
      <trkpt lat="45.72329" lon="4.82356">
        <ele>165</ele>
        <time>2010-01-01T07:01:44Z</time>
      </trkpt>
      <trkpt lat="45.72426" lon="4.82723">
        <ele>164</ele>
        <time>2010-01-01T07:03:34Z</time>
      </trkpt>
      <trkpt lat="45.72436" lon="4.82766">
        <ele>166</ele>
        <time>2010-01-01T07:03:47Z</time>
      </trkpt>
    </trkseg>
  </trk>
</gpx>